When you browse on this site, cookies collect data to enhance your experience and personalize the content and advertising you see.
Visit our Privacy Policy to learn more. By continuing to use the site, you agree to this use of cookies and data.
  • Em Portugal
  • Lista de países
  • Para 7 dias
  • Temperatura da água
  • Mapas de satélite
  • Mapa do tempo
  • Widgets de tempo
  • user-avatar
    Iniciar Sessão

    Previsão horária em Bijeljina

    Hoje, 22 Novembro, Quinta-feira

    Tempo Temperatura Precipitação Vento Pressão Humidade
    00:00 +5°C° 0 mm 1 m/s 756 mmHg 87%
    01:00 +4°C° 0 mm 1 m/s 756 mmHg 89%
    02:00 +4°C° 0 mm 1 m/s 756 mmHg 90%
    03:00 +4°C° 0 mm 1 m/s 756 mmHg 90%
    04:00 +4°C° 0 mm 1 m/s 756 mmHg 90%
    05:00 +4°C° 0 mm 1 m/s 756 mmHg 90%
    06:00 +4°C° 0 mm 1 m/s 756 mmHg 90%
    07:00 +4°C° 0 mm 1 m/s 757 mmHg 90%
    08:00 +5°C° 0 mm 1 m/s 757 mmHg 85%
    09:00 +6°C° 0 mm 1 m/s 757 mmHg 79%
    10:00 +7°C° 0 mm 2 m/s 757 mmHg 73%
    11:00 +8°C° 0 mm 2 m/s 757 mmHg 70%
    12:00 +9°C° 0 mm 2 m/s 757 mmHg 67%
    13:00 +10°C° 0 mm 2 m/s 757 mmHg 63%
    14:00 +9°C° 0 mm 2 m/s 757 mmHg 67%
    15:00 +8°C° 0 mm 2 m/s 757 mmHg 71%
    16:00 +8°C° 0 mm 1 m/s 758 mmHg 75%
    17:00 +8°C° 0 mm 1 m/s 758 mmHg 78%
    18:00 +7°C° 0 mm 1 m/s 758 mmHg 81%
    19:00 +6°C° 0 mm 1 m/s 759 mmHg 84%
    20:00 +6°C° 0 mm 1 m/s 759 mmHg 86%
    21:00 +6°C° 0 mm 1 m/s 759 mmHg 87%
    22:00 +5°C° 0 mm 1 m/s 759 mmHg 88%
    23:00 +5°C° 0 mm 1 m/s 759 mmHg 88%

    Amanhã, 23 Novembro, Sexta-feira

    Tempo Temperatura Precipitação Vento Pressão Humidade
    00:00 +5°C° 0 mm 1 m/s 760 mmHg 89%
    01:00 +4°C° 0 mm 0 m/s 760 mmHg 90%
    02:00 +3°C° 0 mm 0 m/s 760 mmHg 90%
    03:00 +3°C° 0 mm 0 m/s 760 mmHg 91%
    04:00 +3°C° 0 mm 0 m/s 760 mmHg 91%
    05:00 +3°C° 0 mm 0 m/s 760 mmHg 91%
    06:00 +3°C° 0 mm 0 m/s 761 mmHg 92%
    07:00 +3°C° 0 mm 0 m/s 761 mmHg 92%
    08:00 +4°C° 0 mm 0 m/s 761 mmHg 85%
    09:00 +7°C° 0 mm 1 m/s 761 mmHg 79%
    10:00 +9°C° 0 mm 1 m/s 761 mmHg 72%
    11:00 +10°C° 0 mm 1 m/s 761 mmHg 68%
    12:00 +11°C° 0 mm 1 m/s 760 mmHg 65%
    13:00 +12°C° 0 mm 2 m/s 760 mmHg 61%
    14:00 +10°C° 0 mm 2 m/s 760 mmHg 66%
    15:00 +9°C° 0 mm 2 m/s 760 mmHg 70%
    16:00 +8°C° 0 mm 2 m/s 760 mmHg 75%
    17:00 +8°C° 0 mm 2 m/s 760 mmHg 78%
    18:00 +7°C° 0 mm 2 m/s 760 mmHg 81%
    19:00 +6°C° 0 mm 2 m/s 760 mmHg 85%
    20:00 +6°C° 0 mm 2 m/s 760 mmHg 86%
    21:00 +6°C° 0 mm 2 m/s 760 mmHg 87%
    22:00 +6°C° 0 mm 2 m/s 760 mmHg 88%
    23:00 +6°C° 0 mm 2 m/s 759 mmHg 88%

    Depois de amanhã, 24 Novembro, Sábado

    Tempo Temperatura Precipitação Vento Pressão Humidade
    00:00 +5°C° 0 mm 2 m/s 759 mmHg 89%
    01:00 +5°C° 0 mm 2 m/s 759 mmHg 89%
    02:00 +5°C° 0 mm 2 m/s 758 mmHg 88%
    03:00 +5°C° 0 mm 2 m/s 758 mmHg 87%
    04:00 +6°C° 0 mm 2 m/s 758 mmHg 86%
    05:00 +6°C° 0 mm 2 m/s 757 mmHg 84%
    06:00 +6°C° 0 mm 2 m/s 757 mmHg 82%
    07:00 +6°C° 0 mm 2 m/s 757 mmHg 80%
    08:00 +7°C° 0 mm 2 m/s 756 mmHg 74%
    09:00 +9°C° 0 mm 2 m/s 756 mmHg 68%
    10:00 +10°C° 0 mm 2 m/s 756 mmHg 61%
    11:00 +13°C° 0 mm 2 m/s 756 mmHg 57%
    12:00 +14°C° 0 mm 2 m/s 755 mmHg 53%
    13:00 +15°C° 0 mm 2 m/s 755 mmHg 49%
    14:00 +14°C° 0 mm 2 m/s 754 mmHg 53%
    15:00 +13°C° 0 mm 2 m/s 754 mmHg 57%
    16:00 +12°C° 0 mm 2 m/s 754 mmHg 62%
    17:00 +12°C° 0.1 mm 2 m/s 754 mmHg 65%
    18:00 +12°C° 0.1 mm 2 m/s 754 mmHg 67%
    19:00 +10°C° 0.1 mm 2 m/s 754 mmHg 70%
    20:00 +10°C° 0.1 mm 2 m/s 754 mmHg 72%
    21:00 +10°C° 0.1 mm 2 m/s 754 mmHg 74%
    22:00 +10°C° 0.1 mm 2 m/s 754 mmHg 76%
    23:00 +10°C° 0 mm 2 m/s 754 mmHg 78%

    25 Novembro, Domingo

    Tempo Temperatura Precipitação Vento Pressão Humidade
    00:00 +11°C° 0 mm 1 m/s 753 mmHg 80%
    01:00 +10°C° 0 mm 1 m/s 753 mmHg 83%
    02:00 +10°C° 0 mm 1 m/s 753 mmHg 84%
    03:00 +10°C° 0 mm 1 m/s 753 mmHg 85%
    04:00 +10°C° 0 mm 1 m/s 752 mmHg 86%
    05:00 +10°C° 0 mm 1 m/s 752 mmHg 86%
    06:00 +9°C° 0 mm 1 m/s 752 mmHg 87%
    07:00 +8°C° 0 mm 0 m/s 752 mmHg 87%
    08:00 +11°C° 0 mm 1 m/s 752 mmHg 80%
    09:00 +13°C° 0 mm 1 m/s 752 mmHg 73%
    10:00 +14°C° 0 mm 1 m/s 752 mmHg 66%
    11:00 +15°C° 0 mm 1 m/s 751 mmHg 63%
    12:00 +16°C° 0 mm 1 m/s 751 mmHg 60%
    13:00 +18°C° 0 mm 1 m/s 750 mmHg 56%
    14:00 +16°C° 0 mm 1 m/s 750 mmHg 61%
    15:00 +15°C° 0 mm 2 m/s 749 mmHg 66%
    16:00 +14°C° 0 mm 2 m/s 749 mmHg 71%
    17:00 +13°C° 0 mm 2 m/s 749 mmHg 74%
    18:00 +12°C° 0 mm 2 m/s 749 mmHg 78%
    19:00 +12°C° 0 mm 1 m/s 748 mmHg 81%
    20:00 +11°C° 0 mm 1 m/s 748 mmHg 83%
    21:00 +11°C° 0 mm 1 m/s 748 mmHg 84%
    22:00 +11°C° 0 mm 1 m/s 747 mmHg 86%
    23:00 +10°C° 0.1 mm 2 m/s 747 mmHg 86%

    26 Novembro, Segunda-feira

    Tempo Temperatura Precipitação Vento Pressão Humidade
    00:00 +10°C° 0.1 mm 2 m/s 746 mmHg 87%
    01:00 +10°C° 0.1 mm 2 m/s 745 mmHg 87%
    02:00 +10°C° 1 mm 2 m/s 745 mmHg 89%
    03:00 +9°C° 1 mm 2 m/s 744 mmHg 91%
    04:00 +9°C° 1 mm 2 m/s 744 mmHg 92%
    05:00 +9°C° 0.2 mm 2 m/s 743 mmHg 92%
    06:00 +9°C° 0.2 mm 2 m/s 743 mmHg 92%
    07:00 +9°C° 0.2 mm 2 m/s 743 mmHg 91%
    08:00 +10°C° 0.1 mm 2 m/s 743 mmHg 88%
    09:00 +11°C° 0.1 mm 1 m/s 743 mmHg 84%
    10:00 +12°C° 0.1 mm 1 m/s 743 mmHg 81%
    11:00 +13°C° 0.1 mm 1 m/s 742 mmHg 80%
    12:00 +13°C° 0.1 mm 1 m/s 742 mmHg 78%
    13:00 +14°C° 0.1 mm 2 m/s 742 mmHg 76%
    14:00 +13°C° 0 mm 1 m/s 742 mmHg 79%
    15:00 +13°C° 0 mm 1 m/s 742 mmHg 82%
    16:00 +12°C° 0 mm 1 m/s 743 mmHg 85%
    17:00 +11°C° 0 mm 1 m/s 743 mmHg 87%
    18:00 +11°C° 0 mm 1 m/s 743 mmHg 88%
    19:00 +11°C° 0 mm 1 m/s 743 mmHg 89%
    20:00 +10°C° 0 mm 1 m/s 743 mmHg 89%
    21:00 +10°C° 0 mm 1 m/s 743 mmHg 89%
    22:00 +10°C° 0 mm 1 m/s 743 mmHg 89%
    23:00 +10°C° 0.4 mm 1 m/s 743 mmHg 90%

    27 Novembro, Terça-feira

    Tempo Temperatura Precipitação Vento Pressão Humidade
    00:00 +10°C° 0.4 mm 1 m/s 743 mmHg 91%
    01:00 +10°C° 0.4 mm 1 m/s 743 mmHg 92%
    02:00 +10°C° 0.1 mm 1 m/s 742 mmHg 92%
    03:00 +10°C° 0.1 mm 1 m/s 742 mmHg 93%
    04:00 +10°C° 0.1 mm 1 m/s 742 mmHg 93%
    05:00 +9°C° 0.7 mm 1 m/s 742 mmHg 94%
    06:00 +8°C° 0.7 mm 2 m/s 741 mmHg 94%
    07:00 +8°C° 0.7 mm 2 m/s 741 mmHg 95%
    08:00 +9°C° 1.3 mm 2 m/s 741 mmHg 92%
    09:00 +9°C° 1.3 mm 3 m/s 741 mmHg 89%
    10:00 +10°C° 1.3 mm 3 m/s 741 mmHg 87%
    11:00 +10°C° 0.9 mm 4 m/s 742 mmHg 85%
    12:00 +10°C° 0.9 mm 4 m/s 742 mmHg 84%
    13:00 +10°C° 0.9 mm 4 m/s 742 mmHg 82%
    14:00 +8°C° 0.4 mm 5 m/s 743 mmHg 83%
    15:00 +7°C° 0.4 mm 5 m/s 744 mmHg 84%
    16:00 +5°C° 0.4 mm 6 m/s 745 mmHg 85%
    17:00 +5°C° 0.2 mm 6 m/s 746 mmHg 84%
    18:00 +5°C° 0.2 mm 5 m/s 747 mmHg 84%
    19:00 +5°C° 0.2 mm 5 m/s 748 mmHg 83%
    20:00 +5°C° 0.1 mm 5 m/s 749 mmHg 82%
    21:00 +3°C° 0.1 mm 5 m/s 750 mmHg 82%
    22:00 +4°C° 0.1 mm 4 m/s 750 mmHg 81%
    23:00 +4°C° 0 mm 4 m/s 751 mmHg 81%
    Mostrar mais